Location: Caltech
(34.1382°N, 118.1253°W)
Time: 16:25:31
(UTC-07:00)

Meteor 2-4 Rocket - Visible Passes

Search period start: 26 August 2016 00:00
Search period end: 05 September 2016 00:00
Orbit: 799 x 908 km, 81.2° (Epoch: 26 August)

Date Brightness Start Highest point End Pass type
(mag) Time Alt. Az. Time Alt. Az. Time Alt. Az.
26 Aug 4.8 20:32:46 10° NNW 20:38:25 49° W 20:44:05 10° SSW visible
27 Aug 4.7 20:21:44 10° NNW 20:27:26 53° W 20:33:10 10° SSW visible
28 Aug 4.6 20:10:42 10° NNW 20:16:27 56° W 20:22:13 10° S visible
29 Aug 4.5 19:59:40 10° NNW 20:05:28 61° W 20:11:17 10° S visible
30 Aug 4.4 19:48:38 10° NNW 19:54:29 65° W 20:00:20 10° S visible
31 Aug 4.3 19:37:37 10° NNW 19:43:30 70° W 19:49:23 10° S visible
